User: anonymous   Login
Location: Newark
(43.0000°N, 1.6781°W)
Time: 15:42:14
(UTC+00:00)
Language:

A-11 Canister half - Orbit

View from above orbital plane
View from above orbital plane
View from above satellite
View from above satellite

Ground track
Ground track

The orbit data is extracted from the following two-line orbital elements,

1 00051U 60009C   22266.78827666 -.00000132  00000-0 -44845-3 0  9995
2 00051  47.2126 304.7556 0105810 106.4963 254.7481 12.18282294765079
Epoch (UTC): 23 September 2022 18:55:07
Eccentricity: 0.0105810
inclination: 47.2126°
perigee height: 1515 km
apogee height: 1684 km
right ascension of ascending node: 304.7556°
argument of perigee: 106.4963°
revolutions per day: 12.18282294
mean anomaly at epoch: 254.7481°
orbit number at epoch: 76507

The dashed part of the orbit path shows where the satellite is in the earth's shadow,  

DLR